| time (UTC) | temp F | wind direction | speed MPH | gust MPH | rain 1hr in | rain 24hr in | rain mn in | humidity % | barometer mb |
| 20260509051547 | 53 | 302 | 0.0 | 1.0 | 0.00 | 0.00 | 0.00 | 82 | 1022.6 |
| 20260509050037 | 54 | 0 | 0.0 | 6.0 | 0.00 | 0.00 | 0.00 | 81 | 1022.7 |
| 20260509044543 | 55 | 284 | 4.0 | 8.0 | 0.00 | 0.00 | 0.00 | 80 | 1022.6 |
| 20260509043051 | 55 | 290 | 4.0 | 9.0 | 0.00 | 0.00 | 0.00 | 80 | 1022.5 |
| 20260509041538 | 56 | 290 | 2.0 | 5.0 | 0.00 | 0.00 | 0.00 | 78 | 1022.4 |
| 20260509040104 | 56 | 260 | 2.0 | 8.0 | 0.00 | 0.00 | 0.00 | 76 | 1022.2 |
| 20260509034537 | 57 | 267 | 2.0 | 8.0 | 0.00 | 0.00 | 0.00 | 75 | 1022.3 |
| 20260509033107 | 58 | 283 | 3.0 | 6.0 | 0.00 | 0.00 | 0.00 | 73 | 1022.0 |
| 20260509031548 | 59 | 280 | 4.0 | 9.0 | 0.00 | 0.00 | 0.00 | 71 | 1021.9 |
| 20260509030043 | 60 | 274 | 5.0 | 14.0 | 0.00 | 0.00 | 0.00 | 69 | 1021.9 |
| 20260509024556 | 61 | 275 | 4.0 | 10.0 | 0.00 | 0.00 | 0.00 | 67 | 1021.8 |
| 20260509023046 | 62 | 283 | 4.0 | 9.0 | 0.00 | 0.00 | 0.00 | 65 | 1021.8 |
| 20260509021545 | 62 | 276 | 7.0 | 13.0 | 0.00 | 0.00 | 0.00 | 65 | 1021.7 |
| 20260509020047 | 63 | 278 | 6.0 | 9.0 | 0.00 | 0.00 | 0.00 | 63 | 1021.7 |
| 20260509014539 | 63 | 255 | 6.0 | 11.0 | 0.00 | 0.00 | 0.00 | 63 | 1021.6 |
| 20260509013038 | 63 | 276 | 6.0 | 11.0 | 0.00 | 0.00 | 0.00 | 63 | 1021.7 |
| 20260509011550 | 64 | 285 | 5.0 | 8.0 | 0.00 | 0.00 | 0.00 | 62 | 1021.7 |
| 20260509010039 | 65 | 290 | 5.0 | 11.0 | 0.00 | 0.00 | 0.00 | 60 | 1021.9 |
| 20260509004549 | 64 | 281 | 7.0 | 12.0 | 0.00 | 0.00 | 0.00 | 60 | 1021.9 |
| 20260509003040 | 64 | 265 | 6.0 | 13.0 | 0.00 | 0.00 | 0.00 | 60 | 1021.9 |
| 20260509001539 | 66 | 278 | 5.0 | 6.0 | 0.00 | 0.00 | 0.00 | 58 | 1022.0 |
| 20260509000041 | 66 | 274 | 3.0 | 5.0 | 0.00 | 0.00 | 0.00 | 57 | 1021.9 |
| 20260508234546 | 66 | 271 | 2.0 | 9.0 | 0.00 | 0.00 | 0.00 | 58 | 1022.2 |
| 20260508233047 | 64 | 271 | 6.0 | 13.0 | 0.00 | 0.00 | 0.00 | 59 | 1022.2 |
| 20260508231546 | 66 | 271 | 3.0 | 9.0 | 0.00 | 0.00 | 0.00 | 57 | 1022.0 |
| 20260508230042 | 64 | 262 | 5.0 | 11.0 | 0.00 | 0.00 | 0.00 | 58 | 1022.1 |
| 20260508224549 | 64 | 276 | 5.0 | 9.0 | 0.00 | 0.00 | 0.00 | 58 | 1022.1 |
| 20260508223041 | 64 | 276 | 5.0 | 9.0 | 0.00 | 0.00 | 0.00 | 60 | 1022.1 |
| 20260508221544 | 64 | 269 | 3.0 | 6.0 | 0.00 | 0.00 | 0.00 | 59 | 1022.1 |
| 20260508220047 | 63 | 279 | 4.0 | 12.0 | 0.00 | 0.00 | 0.00 | 58 | 1022.2 |
| 20260508214545 | 63 | 277 | 4.0 | 7.0 | 0.00 | 0.00 | 0.00 | 57 | 1022.3 |
| 20260508213041 | 64 | 273 | 2.0 | 9.0 | 0.00 | 0.00 | 0.00 | 58 | 1022.2 |
| 20260508211543 | 63 | 293 | 3.0 | 13.0 | 0.00 | 0.00 | 0.00 | 59 | 1022.2 |
| 20260508210044 | 62 | 268 | 5.0 | 8.0 | 0.00 | 0.00 | 0.00 | 59 | 1022.2 |
| 20260508204539 | 61 | 262 | 1.0 | 14.0 | 0.00 | 0.00 | 0.00 | 62 | 1022.0 |
| 20260508203040 | 61 | 304 | 2.0 | 6.0 | 0.00 | 0.00 | 0.00 | 61 | 1022.2 |
| 20260508201544 | 60 | 285 | 3.0 | 7.0 | 0.00 | 0.00 | 0.00 | 62 | 1022.2 |
| 20260508200043 | 59 | 293 | 3.0 | 9.0 | 0.00 | 0.00 | 0.00 | 63 | 1022.1 |
| 20260508194546 | 59 | 303 | 3.0 | 8.0 | 0.00 | 0.00 | 0.00 | 63 | 1022.3 |
| 20260508193039 | 58 | 0 | 1.0 | 5.0 | 0.00 | 0.00 | 0.00 | 63 | 1022.4 |
| 20260508191548 | 58 | 256 | 4.0 | 9.0 | 0.00 | 0.00 | 0.00 | 62 | 1022.5 |
| 20260508184543 | 57 | 307 | 2.0 | 11.0 | 0.00 | 0.00 | 0.00 | 63 | 1022.3 |
| 20260508183044 | 56 | 285 | 4.0 | 10.0 | 0.00 | 0.00 | 0.00 | 63 | 1022.3 |
| 20260508181544 | 55 | 264 | 3.0 | 10.0 | 0.00 | 0.00 | 0.00 | 65 | 1022.4 |
| 20260508180038 | 55 | 276 | 4.0 | 9.0 | 0.00 | 0.00 | 0.00 | 67 | 1022.3 |
| 20260508174548 | 54 | 263 | 4.0 | 13.0 | 0.00 | 0.00 | 0.00 | 68 | 1022.2 |
| 20260508173038 | 54 | 278 | 4.0 | 10.0 | 0.00 | 0.00 | 0.00 | 68 | 1022.0 |
| 20260508171544 | 54 | 293 | 6.0 | 12.0 | 0.00 | 0.00 | 0.00 | 69 | 1022.0 |
| 20260508170037 | 53 | 277 | 4.0 | 9.0 | 0.00 | 0.00 | 0.00 | 70 | 1022.0 |
| 20260508164537 | 53 | 270 | 5.0 | 9.0 | 0.00 | 0.00 | 0.00 | 71 | 1021.9 |
| 20260508163050 | 53 | 276 | 5.0 | 7.0 | 0.00 | 0.00 | 0.00 | 71 | 1021.9 |
| 20260508161553 | 53 | 281 | 2.0 | 4.0 | 0.00 | 0.00 | 0.00 | 72 | 1021.6 |
| 20260508160043 | 53 | 134 | 0.0 | 3.0 | 0.00 | 0.00 | 0.00 | 72 | 1021.6 |
| 20260508154541 | 52 | 0 | 0.0 | 3.0 | 0.00 | 0.00 | 0.00 | 74 | 1021.3 |
| 20260508153054 | 52 | 0 | 1.0 | 3.0 | 0.00 | 0.00 | 0.00 | 76 | 1021.1 |
| 20260508151538 | 51 | 0 | 0.0 | 3.0 | 0.00 | 0.00 | 0.00 | 77 | 1021.1 |
| 20260508150037 | 51 | 0 | 0.0 | 3.0 | 0.00 | 0.00 | 0.00 | 78 | 1021.0 |
| 20260508144544 | 49 | 0 | 0.0 | 1.0 | 0.00 | 0.00 | 0.00 | 82 | 1020.8 |
| 20260508143057 | 50 | 0 | 0.0 | 2.0 | 0.00 | 0.00 | 0.00 | 79 | 1020.5 |
| 20260508141544 | 50 | 0 | 0.0 | 4.0 | 0.00 | 0.00 | 0.00 | 79 | 1020.5 |
| 20260508140043 | 50 | 264 | 2.0 | 7.0 | 0.00 | 0.00 | 0.00 | 79 | 1020.5 |
| 20260508134539 | 50 | 291 | 3.0 | 7.0 | 0.00 | 0.00 | 0.00 | 79 | 1020.4 |
| 20260508133048 | 50 | 281 | 4.0 | 9.0 | 0.00 | 0.00 | 0.00 | 79 | 1020.4 |
| 20260508131537 | 50 | 283 | 4.0 | 8.0 | 0.00 | 0.00 | 0.00 | 80 | 1020.2 |
| 20260508130044 | 50 | 274 | 6.0 | 11.0 | 0.00 | 0.00 | 0.00 | 80 | 1020.0 |
| 20260508124541 | 50 | 270 | 6.0 | 13.0 | 0.00 | 0.00 | 0.00 | 79 | 1019.8 |
| 20260508123042 | 49 | 263 | 7.0 | 14.0 | 0.00 | 0.00 | 0.00 | 79 | 1019.7 |
| 20260508121548 | 49 | 278 | 7.0 | 12.0 | 0.00 | 0.00 | 0.00 | 79 | 1019.5 |
| 20260508120053 | 49 | 285 | 7.0 | 13.0 | 0.00 | 0.00 | 0.00 | 79 | 1019.2 |
| 20260508114544 | 49 | 324 | 5.0 | 11.0 | 0.00 | 0.00 | 0.00 | 80 | 1019.2 |
| 20260508113040 | 49 | 302 | 7.0 | 13.0 | 0.00 | 0.00 | 0.00 | 79 | 1019.1 |
| 20260508111541 | 49 | 267 | 7.0 | 15.0 | 0.00 | 0.00 | 0.00 | 80 | 1018.9 |
| 20260508110051 | 49 | 269 | 7.0 | 14.0 | 0.00 | 0.00 | 0.00 | 80 | 1018.9 |
| 20260508104538 | 49 | 280 | 7.0 | 12.0 | 0.00 | 0.00 | 0.00 | 81 | 1018.7 |
| 20260508103045 | 48 | 278 | 7.0 | 13.0 | 0.00 | 0.00 | 0.00 | 81 | 1018.6 |
| 20260508101541 | 48 | 272 | 5.0 | 9.0 | 0.00 | 0.00 | 0.00 | 82 | 1018.5 |
| 20260508100059 | 48 | 270 | 5.0 | 16.0 | 0.00 | 0.00 | 0.00 | 82 | 1018.6 |
| 20260508094543 | 48 | 300 | 6.0 | 12.0 | 0.00 | 0.00 | 0.00 | 83 | 1018.5 |
| 20260508093041 | 47 | 281 | 5.0 | 14.0 | 0.00 | 0.00 | 0.00 | 84 | 1018.4 |
| 20260508091552 | 47 | 274 | 6.0 | 17.0 | 0.00 | 0.00 | 0.00 | 84 | 1018.2 |
| 20260508090247 | 47 | 271 | 6.0 | 11.0 | 0.00 | 0.00 | 0.00 | 83 | 1018.0 |
| 20260508084539 | 48 | 299 | 6.0 | 12.0 | 0.00 | 0.00 | 0.00 | 82 | 1017.7 |
| 20260508083043 | 48 | 296 | 7.0 | 16.0 | 0.00 | 0.00 | 0.00 | 83 | 1017.8 |
| 20260508081554 | 48 | 261 | 6.0 | 11.0 | 0.00 | 0.00 | 0.00 | 84 | 1017.8 |
| 20260508080041 | 48 | 302 | 4.0 | 14.0 | 0.00 | 0.00 | 0.00 | 83 | 1017.8 |
| 20260508074538 | 48 | 274 | 8.0 | 13.0 | 0.00 | 0.00 | 0.00 | 85 | 1017.6 |
| 20260508073048 | 47 | 279 | 5.0 | 10.0 | 0.00 | 0.00 | 0.00 | 85 | 1017.6 |
| 20260508071541 | 47 | 284 | 5.0 | 10.0 | 0.00 | 0.00 | 0.00 | 85 | 1017.8 |
| 20260508070043 | 47 | 279 | 4.0 | 9.0 | 0.00 | 0.00 | 0.00 | 85 | 1017.7 |
| 20260508064543 | 48 | 295 | 4.0 | 10.0 | 0.00 | 0.00 | 0.00 | 84 | 1017.6 |
| 20260508063039 | 48 | 288 | 3.0 | 9.0 | 0.00 | 0.00 | 0.00 | 83 | 1017.6 |
| 20260508061546 | 49 | 272 | 4.0 | 9.0 | 0.00 | 0.00 | 0.00 | 83 | 1017.8 |
| 20260508060058 | 49 | 300 | 4.0 | 10.0 | 0.00 | 0.00 | 0.00 | 82 | 1017.8 |
| 20260508054622 | 49 | 311 | 5.0 | 8.0 | 0.00 | 0.00 | 0.00 | 81 | 1017.8 |
| 20260508053050 | 50 | 274 | 4.0 | 8.0 | 0.00 | 0.00 | 0.00 | 80 | 1017.9 |